New Richmond, WI

5:36 AM CST on February 22, 2017 (GMT -0600)
New Richmond Municipal

Weather History for KRNH - March, 2014

Change the Weather History Date:

Sunday, March 2, 2014

  Actual Average (KSTP) Record (KSTP)
Temperature  
Mean Temperature -8 °F -  
Max Temperature 3 °F 28 °F 39 °F (1998)
Min Temperature -19 °F 15 °F -13 °F (2014)
Degree Days  
Heating Degree Days 73    
Moisture  
Dew Point -21 °F    
Average Humidity 53    
Maximum Humidity 77    
Minimum Humidity 38    
Precipitation  
Precipitation 0.00 in - - ()
Sea Level Pressure  
Sea Level Pressure 30.48 in    
Wind  
Wind Speed 8 mph (WNW)    
Max Wind Speed 13 mph    
Max Gust Speed 16 mph    
Visibility 10 miles    
Events      
Averages and records for this station are not official NWS values.
T = Trace of Precipitation, MM = Missing Value Source: NWS Daily Summary

Daily Weather History Graph

Daily Weather History Graph

Search for Another Location

Airport or City:

Trip Planner

Search our weather history database for the weather conditions in past years. The results will help you decide how hot, cold, wet, or windy it might be!

Date:

Astronomy

Mar. 02, 2014 Rise Set
Actual Time 6:46 AM CST 5:58 PM CST
Civil Twilight 6:16 AM CST 6:28 PM CST
Nautical Twilight 5:42 AM CST 7:02 PM CST
Astronomical Twilight 5:08 AM CST 7:36 PM CST
Moon 7:12 AM CST (3/2) 8:02 PM CST (3/2)
Length of Visible Light 12h 11m
Length of Day
11h 12m
Waxing Crescent, 3% of the Moon is Illuminated
Mar 2
Waxing Crescent
Mar 8
First Quarter
Mar 16
Full
Mar 23
Last Quarter
Mar 30
New

Hourly Weather History & Observations

Time (CST) Temp. Windchill Dew Point Humidity Pressure Visibility Wind Dir Wind Speed Gust Speed Precip Events Conditions
12:15 AM -7.1 °F -23.9 °F -22.4 °F 47% 30.49 in 10.0 mi NW 9.2 mph - N/A   Clear
12:35 AM -7.6 °F -25.7 °F -23.6 °F 46% 30.48 in 10.0 mi NW 10.4 mph - N/A   Clear
12:55 AM -7.8 °F -26.8 °F -23.4 °F 47% 30.49 in 10.0 mi NNW 11.5 mph - N/A   Clear
1:15 AM -8.5 °F -25.7 °F -24.0 °F 47% 30.50 in 10.0 mi NW 9.2 mph 12.7 mph N/A   Clear
1:35 AM -9.4 °F -28.9 °F -25.2 °F 46% 30.50 in 10.0 mi NNW 11.5 mph - N/A   Clear
1:55 AM -10.5 °F -29.2 °F -26.3 °F 46% 30.50 in 10.0 mi NW 10.4 mph - N/A   Clear
2:15 AM -10.8 °F -27.4 °F -26.7 °F 46% 30.51 in 10.0 mi NNW 8.1 mph - N/A   Clear
2:35 AM -12.5 °F -29.3 °F -26.1 °F 51% 30.50 in 10.0 mi NNW 8.1 mph - N/A   Clear
2:55 AM -13.2 °F -30.2 °F -26.7 °F 51% 30.50 in 10.0 mi NNW 8.1 mph - N/A   Clear
3:15 AM -13.5 °F -31.9 °F -27.4 °F 50% 30.50 in 10.0 mi NNW 9.2 mph - N/A   Clear
3:35 AM -13.9 °F -28.1 °F -27.2 °F 51% 30.50 in 10.0 mi NW 5.8 mph - N/A   Clear
3:55 AM -14.8 °F -30.8 °F -27.4 °F 53% 30.50 in 10.0 mi NW 6.9 mph - N/A   Clear
4:15 AM -14.8 °F -29.1 °F -27.6 °F 53% 30.49 in 10.0 mi NW 5.8 mph - N/A   Clear
4:35 AM -15.0 °F -29.3 °F -27.4 °F 54% 30.49 in 10.0 mi NW 5.8 mph - N/A   Clear
4:55 AM -14.8 °F -27.2 °F -26.9 °F 55% 30.50 in 10.0 mi West 4.6 mph - N/A   Clear
5:15 AM -15.7 °F -28.2 °F -27.6 °F 55% 30.51 in 10.0 mi West 4.6 mph - N/A   Clear
5:35 AM -16.2 °F -26.4 °F -27.9 °F 56% 30.51 in 10.0 mi WNW 3.5 mph - N/A   Clear
5:55 AM -17.3 °F -32.1 °F -27.9 °F 59% 30.51 in 10.0 mi West 5.8 mph - N/A   Clear
6:15 AM -17.5 °F -30.3 °F -27.4 °F 61% 30.51 in 10.0 mi West 4.6 mph - N/A   Clear
6:35 AM -19.1 °F -36.0 °F -28.3 °F 63% 30.50 in 10.0 mi West 6.9 mph - N/A   Clear
6:55 AM -19.3 °F -36.2 °F -28.3 °F 63% 30.51 in 10.0 mi West 6.9 mph - N/A   Clear
7:15 AM -18.4 °F -36.6 °F -27.4 °F 63% 30.52 in 10.0 mi West 8.1 mph - N/A   Clear
7:35 AM -17.0 °F -33.4 °F -26.7 °F 61% 30.52 in 10.0 mi West 6.9 mph - N/A   Clear
7:55 AM -16.6 °F -32.9 °F -26.7 °F 60% 30.52 in 10.0 mi West 6.9 mph - N/A   Clear
8:15 AM -15.2 °F -31.2 °F -26.1 °F 58% 30.52 in 10.0 mi WNW 6.9 mph - N/A   Clear
8:35 AM -13.4 °F -29.0 °F -25.4 °F 55% 30.51 in 10.0 mi WNW 6.9 mph - N/A   Clear
8:55 AM -12.5 °F -29.3 °F -24.9 °F 54% 30.51 in 10.0 mi NW 8.1 mph - N/A   Clear
9:15 AM -11.2 °F -26.4 °F -24.7 °F 51% 30.51 in 10.0 mi WNW 6.9 mph - N/A   Clear
9:35 AM -10.3 °F -26.7 °F -23.8 °F 51% 30.51 in 10.0 mi NW 8.1 mph - N/A   Clear
9:55 AM -9.2 °F -22.5 °F -23.4 °F 50% 30.50 in 10.0 mi WNW 5.8 mph - N/A   Clear
10:15 AM -8.1 °F -25.3 °F -23.3 °F 48% 30.50 in 10.0 mi WNW 9.2 mph - N/A   Clear
10:35 AM -7.4 °F -23.2 °F -23.3 °F 46% 30.51 in 10.0 mi NW 8.1 mph - N/A   Clear
10:55 AM -6.2 °F -21.7 °F -22.2 °F 46% 30.51 in 10.0 mi WNW 8.1 mph - N/A   Clear
11:10 AM -5.6 °F -18.2 °F -21.5 °F 46% 30.50 in 10.0 mi WNW 5.8 mph - N/A   Clear
11:35 AM -4.2 °F -18.0 °F -20.9 °F 45% 30.50 in 10.0 mi West 6.9 mph - N/A   Clear
11:55 AM -2.7 °F -16.2 °F -20.0 °F 44% 30.50 in 10.0 mi West 6.9 mph - N/A   Clear
12:15 PM -2.0 °F -15.4 °F -20.0 °F 42% 30.50 in 10.0 mi West 6.9 mph - N/A   Clear
12:35 PM -1.3 °F -14.5 °F -19.7 °F 42% 30.50 in 10.0 mi West 6.9 mph - N/A   Clear
12:55 PM -0.6 °F -16.0 °F -18.8 °F 42% 30.49 in 10.0 mi WSW 9.2 mph - N/A   Clear
1:15 PM -0.0 °F -14.2 °F -17.9 °F 43% 30.49 in 10.0 mi West 8.1 mph - N/A   Clear
1:35 PM 0.9 °F -13.1 °F -18.4 °F 40% 30.48 in 10.0 mi West 8.1 mph - N/A   Clear
1:55 PM 1.4 °F -12.5 °F -18.9 °F 38% 30.47 in 10.0 mi West 8.1 mph - N/A   Clear
2:15 PM 2.1 °F -11.6 °F -17.1 °F 40% 30.46 in 10.0 mi West 8.1 mph - N/A   Clear
2:35 PM 2.7 °F -12.9 °F -17.5 °F 39% 30.45 in 10.0 mi West 10.4 mph - N/A   Clear
2:55 PM 3.0 °F -14.1 °F -16.2 °F 40% 30.45 in 10.0 mi West 12.7 mph - N/A   Clear
3:15 PM 3.0 °F -11.5 °F -16.1 °F 41% 30.45 in 10.0 mi WNW 9.2 mph - N/A   Clear
3:35 PM 3.0 °F -12.5 °F -15.7 °F 42% 30.45 in 10.0 mi West 10.4 mph 16.1 mph N/A   Clear
3:50 PM 3.2 °F -10.3 °F -14.8 °F 43% 30.45 in 10.0 mi WNW 8.1 mph - N/A   Clear
4:15 PM 3.2 °F -10.3 °F -14.4 °F 44% 30.46 in 10.0 mi West 8.1 mph - N/A   Clear
4:35 PM 3.0 °F -14.1 °F -13.7 °F 46% 30.46 in 10.0 mi West 12.7 mph - N/A   Clear
4:55 PM 2.3 °F -12.4 °F -13.7 °F 47% 30.45 in 10.0 mi West 9.2 mph - N/A   Clear
5:15 PM 2.1 °F -13.6 °F -14.3 °F 46% 30.45 in 10.0 mi West 10.4 mph - N/A   Clear
5:35 PM 1.2 °F -13.7 °F -14.1 °F 49% 30.45 in 10.0 mi West 9.2 mph - N/A   Clear
5:55 PM -0.6 °F -14.9 °F -14.1 °F 53% 30.46 in 10.0 mi West 8.1 mph - N/A   Clear
6:15 PM -2.0 °F -15.4 °F -14.8 °F 55% 30.46 in 10.0 mi West 6.9 mph - N/A   Clear
6:35 PM -2.7 °F -14.8 °F -15.0 °F 56% 30.45 in 10.0 mi West 5.8 mph - N/A   Clear
6:55 PM -4.5 °F - -16.6 °F 56% 30.46 in 10.0 mi Calm Calm - N/A   Clear
7:15 PM -4.2 °F -14.8 °F -15.9 °F 57% 30.44 in 10.0 mi West 4.6 mph - N/A   Clear
7:35 PM -5.3 °F -17.8 °F -16.1 °F 60% 30.45 in 10.0 mi West 5.8 mph - N/A   Clear
7:55 PM -4.0 °F -16.3 °F -14.8 °F 60% 30.45 in 10.0 mi West 5.8 mph - N/A   Clear
8:15 PM -4.4 °F -15.0 °F -15.0 °F 60% 30.45 in 10.0 mi West 4.6 mph - N/A   Clear
8:35 PM -6.7 °F -17.7 °F -16.2 °F 63% 30.45 in 10.0 mi West 4.6 mph - N/A   Clear
8:55 PM -5.1 °F -15.8 °F -15.0 °F 62% 30.46 in 10.0 mi WNW 4.6 mph - N/A   Clear
9:15 PM -8.7 °F -17.8 °F -17.0 °F 67% 30.46 in 10.0 mi WSW 3.5 mph - N/A   Clear
9:35 PM -9.9 °F -19.2 °F -18.2 °F 67% 30.47 in 10.0 mi West 3.5 mph - N/A   Clear
9:55 PM -10.1 °F - -17.1 °F 71% 30.48 in 10.0 mi Calm Calm - N/A   Clear
10:15 PM -11.0 °F - -17.5 °F 73% 30.48 in 10.0 mi Calm Calm - N/A   Clear
10:35 PM -8.5 °F -17.6 °F -16.2 °F 69% 30.48 in 10.0 mi West 3.5 mph - N/A   Clear
10:55 PM -14.4 °F -26.7 °F -20.9 °F 73% 30.48 in 10.0 mi WNW 4.6 mph - N/A   Clear
11:15 PM -13.0 °F - -19.1 °F 74% 30.48 in 10.0 mi Calm Calm - N/A   Clear
11:35 PM -19.1 °F - -25.1 °F 74% 30.48 in 10.0 mi Calm Calm - N/A   Clear
11:55 PM -16.2 °F - -21.5 °F 77% 30.49 in 10.0 mi Calm Calm - N/A   Clear